#timestamp,LO_Frequency,Hit,StdDev 
1621047615.7,286047003.8,N
1621047635.5,286047005.6,Y
1621047655.4,286047003.8,P
1621047675.2,286047006.0,P
1621047695.1,286047002.1,N
1621047696.0,286047002.1,N
1621047715.8,286047000.1,N
1621047735.6,286046998.7,N
1621047755.5,286046998.9,N
1621047775.3,286047002.7,N
1621047795.1,286047002.4,N
1621047815.9,286047000.9,N
1621047835.7,286046999.8,N
1621047855.6,286046999.7,N
1621047875.4,286047002.4,N
1621047895.2,286047004.1,N
1621047915.1,286047002.3,N
1621047916.0,286047002.3,N
1621047935.8,286047001.0,N
1621047955.6,286046999.5,N
1621047975.5,286046997.0,N
1621047995.3,286046997.2,N
1621048015.2,286046998.3,N
1621048035.9,286046998.4,N
1621048055.7,286046998.5,N
1621048075.6,286046998.1,N
1621048095.4,286046999.9,N
1621048115.2,286046999.9,N
1621048135.1,286047002.3,N
1621048136.0,286047002.3,N
1621048155.8,286047002.8,N
1621048175.7,286047001.3,N
1621048195.5,286047004.1,N
1621048215.3,286047004.3,N
1621048235.2,286047003.3,N
1621048255.0,286046999.8,N
1621048255.9,286046999.8,N
1621048275.7,286046998.1,N
1621048295.6,286047000.1,N
1621048315.4,286047005.9,N
1621048335.3,286047005.6,N
1621048355.1,286047002.9,N
1621048356.0,286047002.9,N
1621048375.8,286047007.5,Y
1621048395.7,286047004.3,P
1621048415.5,286046999.7,N
1621048435.3,286047000.4,N
1621048455.2,286047000.7,N
1621048475.0,286047000.3,N
1621048475.9,286047000.3,N
1621048495.8,286047004.4,Y
1621048515.6,286047000.5,P
1621048535.5,286046999.9,N
1621048555.3,286046998.1,P
1621048575.1,286047001.1,N
1621048595.9,286047001.8,N
1621048615.7,286047004.1,Y
1621048635.5,286047002.6,P
1621048655.4,286046999.7,N
1621048675.2,286047001.1,N
1621048695.1,286046999.8,N
1621048696.0,286046999.8,N
1621048715.8,286047003.9,Y
1621048735.6,286047004.0,P
1621048755.5,286047002.1,N
1621048775.3,286046998.2,N
1621048795.1,286046999.1,N
1621048815.9,286047002.0,N
1621048835.7,286047004.3,N
1621048855.6,286047001.4,N
1621048875.4,286047002.7,N
1621048895.2,286047002.1,N
1621048915.1,286047002.0,N
1621048916.0,286047002.0,N
1621048935.8,286047003.7,N
1621048955.6,286047000.6,N
1621048975.5,286046999.8,N
1621048995.3,286046999.8,N
1621049015.2,286047002.3,N
1621049035.9,286046999.8,N
1621049055.7,286047004.0,N
1621049075.6,286047000.6,N
1621049095.4,286047000.4,N
1621049115.2,286046999.8,N
1621049135.1,286047001.8,N
1621049136.0,286047001.8,N
1621049155.8,286047003.5,N
1621049175.7,286047004.3,N
1621049195.5,286047002.3,N
1621049215.3,286047001.2,N
1621049235.2,286047003.8,N
1621049255.0,286047003.0,N
1621049255.9,286047003.0,N
1621049275.8,286047001.9,N
1621049295.6,286047000.1,N
1621049315.4,286047001.4,N
1621049335.3,286047002.4,N
1621049355.1,286047003.9,N
1621049375.8,286046999.9,N
1621049395.7,286047000.1,N
1621049415.5,286047005.9,Y
1621049435.4,286047001.5,P
1621049455.2,286047004.4,P
1621049475.0,286047002.2,N
1621049475.9,286047002.2,N
1621049495.8,286047001.0,N
1621049515.6,286047002.6,N
1621049535.4,286047001.0,N
1621049555.3,286047002.8,N
1621049575.1,286047002.5,N
1621049595.9,286047002.8,N
1621049615.7,286047002.8,Y
1621049635.5,286047000.6,P
1621049655.4,286046999.6,N
1621049675.2,286046999.5,N
1621049695.0,286047000.6,N
1621049695.9,286047000.6,N
1621049715.8,286046999.2,N
1621049735.6,286046996.9,Y
1621049755.5,286047000.8,P
1621049775.3,286046998.3,P
1621049795.1,286046998.4,N
1621049815.9,286047001.0,N
1621049835.7,286047000.9,N
1621049855.6,286046998.5,N
1621049875.4,286046999.3,N
1621049895.2,286046997.4,N
1621049915.1,286046995.4,Y
1621049916.0,286046995.4,P
1621049935.8,286046996.3,N
1621049955.6,286046997.7,N
1621049975.5,286046995.3,Y
1621049995.3,286046998.1,P
1621050015.2,286047001.5,P
1621050035.9,286047001.9,N
1621050055.7,286047000.5,N
1621050075.6,286047000.1,N
1621050095.4,286047002.5,N
1621050115.2,286047001.4,N
1621050135.1,286047003.9,N
1621050136.0,286047003.9,N
1621050155.8,286047000.2,N
1621050175.7,286046999.7,N
1621050195.5,286047003.8,N
1621050215.3,286047003.4,N
1621050235.2,286047004.3,N
1621050255.0,286047000.0,N
1621050255.9,286047000.0,N
1621050275.7,286047002.0,N
1621050295.6,286047000.4,N
1621050315.4,286047000.3,N
1621050335.3,286047000.3,N
1621050355.1,286047000.6,N
1621050356.0,286047000.6,N
1621050375.8,286047001.8,N
1621050395.7,286047002.0,N
1621050415.5,286047000.3,N
1621050435.3,286047001.2,N
1621050455.2,286047000.2,N
1621050475.0,286047000.2,N
1621050475.9,286047000.2,N
1621050495.8,286047004.4,N
1621050515.6,286047004.3,N
1621050535.4,286047002.6,N
1621050555.3,286047002.7,N
1621050575.1,286047001.3,N
1621050595.8,286047003.0,N
1621050615.7,286047001.9,N
1621050635.5,286046999.8,N
1621050655.4,286047001.8,N
1621050675.2,286047005.8,Y
1621050695.0,286047003.6,P
1621050695.9,286047003.6,P
1621050715.8,286047002.5,N
1621050735.6,286047000.3,N
1621050755.5,286047001.1,N
1621050775.3,286047002.4,N
1621050795.1,286047002.6,N
1621050815.9,286047001.0,N
1621050835.7,286046999.1,N
1621050855.5,286046996.5,N
1621050875.4,286046999.6,N
1621050895.2,286046998.1,N
1621050915.0,286046998.3,N
1621050916.0,286046998.3,N
1621050935.8,286046999.4,N
1621050955.6,286046996.6,N
1621050975.5,286046999.5,N
1621050995.3,286047000.5,N
1621051015.1,286047002.1,N
1621051035.9,286047001.7,N
1621051055.7,286047002.8,N
1621051075.5,286047000.4,N
1621051095.4,286046998.7,N
1621051115.2,286046997.6,N
1621051135.1,286046997.4,N
1621051136.0,286046997.4,N
1621051155.8,286046995.0,N
1621051175.6,286046996.8,N
1621051195.5,286046998.4,N
